Weather observations for the past three days for
Tuscaloosa Regional Airport
| Date | Time (cdt) | Wind (kph) | Vis. (km) | Weather | Sky Cond. | Temperature (ºC) | Relative Humidity | Wind Chill (°C) | Heat Index (°C) | Pressure | Precipitation (cm) | ||||||
|---|---|---|---|---|---|---|---|---|---|---|---|---|---|---|---|---|---|
| Air | Dwpt | 6 hour | altimeter (cm) | sea level (mb) | 1 hr | 3 hr | 6 hr | ||||||||||
| Max. | Min. | ||||||||||||||||
| 04 | 10:53 | SW 11 | 16.09 | Fair | CLR | 22 | 11 | 50% | 76.33 | 0.0 | |||||||
| 04 | 08:53 | SW 7 | 16.09 | Fair | CLR | 16 | 9 | 63% | 76.35 | 0.0 | |||||||
| 04 | 06:53 | Calm | 11.27 | Fair | CLR | 9 | 8 | 94% | 76.35 | 0.0 | |||||||
| 03 | 15:53 | NW 15 | 16.09 | Fair | CLR | 23 | 4 | 29% | 76.38 | 0.0 | |||||||
| 03 | 14:53 | N 15 | 16.09 | Fair | CLR | 23 | 6 | 33% | 76.48 | 0.0 | |||||||
| 03 | 13:53 | NW 11 | 16.09 | Fair | CLR | 22 | 3 | 29% | 76.58 | 0.0 | |||||||
| 03 | 13:47 | N 15 G 26 | 16.09 | Fair | CLR | 22 | 3 | 29% | 76.58 | 0.0 | |||||||
| 03 | 12:00 | N 9 | 16.09 | Fair | CLR | 20 | 3 | 33% | 76.71 | 0.0 | |||||||
| 03 | 10:53 | Vrbl 9 | 16.09 | Fair | CLR | 19 | 3 | 35% | 76.73 | 0.0 | |||||||
| 03 | 09:53 | N 9 | 16.09 | Fair | CLR | 17 | 4 | 42% | 76.73 | 0.0 | |||||||
| 03 | 08:53 | N 9 | 16.09 | Fair | CLR | 14 | 7 | 63% | 76.71 | 0.0 | |||||||
| 03 | 07:53 | N 7 | 16.09 | Fair | CLR | 11 | 8 | 82% | 76.71 | 0.0 | |||||||
| 03 | 06:53 | N 6 | 14.48 | Fair | CLR | 8 | 7 | 93% | 76.66 | 0.0 | |||||||
| 02 | 16:53 | N 19 G 30 | 16.09 | Fair | CLR | 22 | 2 | 27% | 76.17 | 0.0 | |||||||
| 02 | 15:53 | NW 24 G 37 | 16.09 | Fair | CLR | 22 | 1 | 25% | 76.2 | 0.0 | |||||||
| 02 | 14:53 | N 24 G 37 | 16.09 | Fair | CLR | 22 | 2 | 27% | 76.2 | 0.0 | |||||||
| 02 | 13:53 | N 20 G 35 | 16.09 | Fair | CLR | 22 | 2 | 27% | 76.23 | 0.0 | |||||||
| 02 | 12:53 | N 20 G 35 | 16.09 | Fair | CLR | 20 | 2 | 30% | 76.28 | 0.0 | |||||||
| 02 | 10:53 | N 20 G 37 | 16.09 | Fair | CLR | 18 | 2 | 34% | 76.33 | 0.0 | |||||||
| 02 | 09:53 | N 17 | 16.09 | Fair | CLR | 16 | 6 | 52% | 76.28 | 0.0 | |||||||
| 02 | 08:53 | N 11 | 16.09 | A Few Clouds | FEW060 | 13 | 6 | 63% | 76.23 | 0.0 | |||||||
| 02 | 07:53 | N 13 | 16.09 | Fair | CLR | 13 | 6 | 63% | 76.17 | 0.0 | |||||||
| 02 | 06:53 | N 9 | 16.09 | Fair | CLR | 12 | 6 | 67% | 76.1 | 0.0 | |||||||
| 01 | 17:53 | Calm | 16.09 | Overcast | FEW085 OVC110 | 16 | 13 | 83% | 76.05 | 0.0 | |||||||
| 01 | 16:53 | N 9 | 16.09 | Overcast | FEW080 OVC100 | 18 | 11 | 64% | 76.02 | 0.0 | |||||||
| 01 | 15:53 | E 6 | 16.09 | Overcast | OVC100 | 18 | 11 | 64% | 76 | 0.0 | |||||||
| 01 | 14:53 | NW 6 | 16.09 | Mostly Cloudy | FEW060 SCT090 BKN110 | 18 | 11 | 64% | 76.1 | 0.0 | |||||||
| 01 | 13:52 | W 6 | 16.09 | Overcast | OVC100 | 17 | 11 | 68% | 76.2 | 0.0 | |||||||
| 01 | 12:52 | Calm | 16.09 | Overcast | OVC110 | 17 | 10 | 64% | 76.15 | 0.0 | |||||||
| Date | Time (cdt) | Wind (kph) | Vis. (km) | Weather | Sky Cond. | Air | Dwpt | Max. | Min. | Relative Humidity | Wind Chill (°C) | Heat Index (°C) | altimeter (cm) | sea level (mb) | 1 hr | 3 hr | 6 hr |
| 6 hour | |||||||||||||||||
| Temperature (ºC) | Pressure | Precipitation (cm) | |||||||||||||||